Regional Weather Roundup
Issued by NWS

Home | Current Version | Previous Version | Graphics & Text | Print | Product List | Glossary On
Versions: 1 2 3 4 5 6 7 8 9 10 11 12 13 14 15 16 17 18 19 20 21 22 23 24 25 26 27 28 29 30 31 32 33 34 35 36 37 38 39 40 41 42 43 44 45 46 47 48 49 50
000
ASUS43 KMKX 211111
RWRWI

WISCONSIN REGIONAL WEATHER ROUNDUP
NATIONAL WEATHER SERVICE MILWAUKEE/SULLIVAN WI
500 AM CST TUE FEB 21 2017

NOTE: "FAIR" INDICATES FEW OR NO CLOUDS BELOW 12,000 FEET WITH NO
SIGNIFICANT WEATHER AND/OR OBSTRUCTIONS TO VISIBILITY.

WIZ001-002-006>008-014>016-023>028-211200-
NORTHWEST WISCONSIN

CITY           SKY/WX    TMP DP  RH WIND       PRES   REMARKS
SUPERIOR ARPT  CLOUDY    35  33  90 SW8       29.82R WCI  29
ASHLAND        PTCLDY    37  34  89 SW16      29.81R WCI  28
HAYWARD        CLOUDY    37  34  89 SW10      29.85R WCI  30
SIREN          CLOUDY    36  34  95 SW6       29.87R WCI  31
CUMBERLAND     CLOUDY    34  32  93 W7        29.86S WCI  28
RICE LAKE      CLOUDY    37  35  94 W6        29.88S WCI  32
CHETEK         CLOUDY    37  36  96 NW3       29.88R
LADYSMITH      MOCLDY    38  37  94 W7        29.88R WCI  33
EAU CLAIRE     CLOUDY    39  36  89 W7        29.89R WCI  34
MENOMONIE      CLOUDY    38  37  92 SW6       29.89R WCI  34
NEW RICHMOND   CLOUDY    36  36  99 SW3       29.89R FOG
OSCEOLA        NOT AVBL
$$

WIZ003>005-009-010-017-018-211200-
NORTH CENTRAL WISCONSIN

CITY           SKY/WX    TMP DP  RH WIND       PRES   REMARKS
MANITOWISH WTR MOCLDY    38  38 100 W9G20     29.78R WCI  32
ARBOR VITAE    MOCLDY    42  40  95 W7        29.78S
WOODRUFF       MOCLDY    42  40  95 W7        29.78S
RHINELANDER    MOCLDY    43  41  93 W15       29.79R
EAGLE RIVER    CLOUDY    42  41  97 W9        29.77R
LAND O LAKES   MOCLDY    42  41  95 W9        29.77R
PHILLIPS       MOCLDY    38  37  99 CALM      29.81R
TOMAHAWK       MOCLDY    41  39  92 W7        29.81S
MEDFORD        CLOUDY    39  37  94 W9        29.84R WCI  33
MERRILL        NOT AVBL
$$

WIZ029-030-035-036-043>047-211200-
CENTRAL WISCONSIN

CITY           SKY/WX    TMP DP  RH WIND       PRES   REMARKS
WAUSAU         CLOUDY    43  41  93 W12       29.82R
MOSINEE        CLOUDY    43  43 100 W7        29.85R
MARSHFIELD     CLOUDY    41  38  89 NW15G21   29.85R
STEVENS POINT  CLOUDY    43  41  93 W7        29.86R
WAUPACA        MOCLDY    50  46  85 W10G17    29.85R
WAUTOMA        CLOUDY    48  44  86 W16       29.88R
WISC RAPIDS    CLOUDY    46  44  93 W7        29.87R
CAMP DOUGLAS   CLOUDY    43  41  91 W9        29.88S
$$

WIZ011>013-019>022-031-037>040-048>050-211200-
NORTHEAST WISCONSIN

CITY           SKY/WX    TMP DP  RH WIND       PRES   REMARKS
ANTIGO         CLOUDY    42  42 100 W9        29.81R
SHAWANO        CLOUDY    51  48  89 W10G17    29.82R
OCONTO         CLOUDY    52  49  91 W12       29.79R
STURGEON BAY   CLOUDY    49  48  97 SW12      29.78R
GREEN BAY      CLOUDY    52  49  89 W18       29.81R
MANITOWOC      CLOUDY    45  44  97 MISG      29.82R FOG
APPLETON       CLOUDY    48  46  93 W14G21    29.82R
CLINTONVILLE   CLOUDY    48  45  87 W10       29.83R
OSHKOSH        CLOUDY    50  46  86 W12       29.85R
$$

WIZ032>034-041-042-053>061-211200-
SOUTHWEST WISCONSIN

CITY           SKY/WX    TMP DP  RH WIND       PRES   REMARKS
LA CROSSE      MOCLDY    38  36  92 SW3       29.91R
SPARTA         CLOUDY    43  41  94 CALM        N/A
VIROQUA        CLOUDY    41  40  99 W5        29.90S
BOSCOBEL       CLOUDY    43  41  93 S6        29.93R
PRAIRIE DU CHI CLEAR     39  37  91 CALM      29.94S
PLATTEVILLE    PTCLDY    42  42 100 W7        29.94R
$$

WIZ056-057-062-063-064-067-068-211200-
SOUTH CENTRAL WISCONSIN

CITY           SKY/WX    TMP DP  RH WIND       PRES   REMARKS
REEDSBURG      CLOUDY    44  44 100 W7        29.89S
BARABOO/DELLS  CLOUDY    46  43  89 W6        29.90R
LONE ROCK      PTCLDY    46  42  86 NW8       29.92R
MINERAL POINT  CLOUDY    45  45 100 W6        29.92R
MADISON        MOCLDY    51  48  89 W7        29.88R
MIDDLETON        N/A     50  47  92 W13       29.90R
WATERTOWN      CLOUDY    53  53 100 SW6       29.87R FOG
MONROE         CLOUDY    48  46  93 W14       29.90R
JANESVILLE     CLOUDY    54  54 100 W8        29.89R FOG
$$

WIZ051-052-058>065-066-070>072-211200-
SOUTHEAST WISCONSIN

CITY           SKY/WX    TMP DP  RH WIND       PRES   REMARKS
MILWAUKEE      CLOUDY    55  52  89 SW10      29.87R
WAUKESHA       CLOUDY    52  52 100 SW7       29.88R FOG
MILWAUKEE/TIMM CLOUDY    54  50  87 SW10      29.86S
RACINE         CLOUDY    54  51  90 SW8       29.89R
KENOSHA        CLOUDY    53  51  93 W7        29.88R FOG
FOND DU LAC    CLOUDY    52  46  80 W20G30    29.85R
SHEBOYGAN      CLOUDY    50  49  96 SW7       29.83R FOG
WEST BEND      CLOUDY    54  54 100 SW10G18   29.85R
JUNEAU         MOCLDY    52  52  98 SW12      29.88R FOG
$$

LSZ147-162-211200-
LAKE SUPERIOR

STATION/POSITION TIME  TEMP    WIND        PRES    WAVE
                       AIR SEA DIR/SP/G            HT/PER
                 (UTC) (F)     (DEG/KT/KT) (MB)    (FT/S)
DEVILS ISLAND    1100   36     240/ 22/ 29 1008.4R
PORT WING        1040   38     210/  6/  9 1009.5R
SAXON HARBOR     1040   41     200/  6/ 15 1008.5R
$$

LMZ867-665-643>646-211200-
LAKE MICHIGAN

STATION/POSITION TIME  TEMP    WIND        PRES    WAVE
                       AIR SEA DIR/SP/G            HT/PER
                 (UTC) (F)     (DEG/KT/KT) (MB)    (FT/S)
CHAMBERS ISLAND  1040   44     180/  7/ 14 1007.8R
NORTHPORT PIER   1040   44      CALM  /  6 1007.8R
SISTER BAY       1005   45     180/ 17/ 20   N/A
KEWAUNEE LAKESHO 1048   39     190/  8/  9 1008.6R
SHEBOYGAN LAKESH 1100   42     170/ 10/ 11 1010.3R
PORT WASHINGTON  1040   41     210/  2/  5 1011.5R
MILWAUKEE LAKESH 1050   54     240/  9/ 10   N/A
KENOSHA   LAKESH 1100   55     250/  6/ 10 1012.2
$$

TC  - TEMPERATURE IN CELSIUS
VSB - VISIBILITY IN STATUTE MILES
WCI - WIND CHILL INDEX
HX  - HEAT INDEX





USA.gov is the U.S. government's official web portal to all federal, state and local government web resources and services.